Location: Charlottesville
(38.0290°N, 78.4770°W)
Time: 03:08:06
(UTC-04:00)

ISS - Pass Details

Date: 10 October 2017
Orbit: 401 x 408 km, 51.6° (Epoch: 20 October)

Event Time Altitude Azimuth Distance (km) Brightness Sun altitude
Rises 19:41:48 0° 320° (NW) 2,326 0.7 -12.4°
Reaches altitude 10° 19:44:33 10° 345° (NNW) 1,466 -0.8 -12.9°
Maximum altitude 19:46:33 15° 22° (NNE) 1,201 -1.6 -13.3°
Enters shadow 19:47:24 14° 40° (NE) 1,254 -1.7 -13.5°
